Kalamazoo, MI

9:27 AM EST on February 24, 2017 (GMT -0500)
Kalamazoo-Battle Creek International

Weather History for KAZO - December, 2006

Change the Weather History Date:

Saturday, December 30, 2006

  Actual Average Record
Temperature  
Mean Temperature 39 °F 25 °F  
Max Temperature 52 °F 32 °F 53 °F (2004)
Min Temperature 26 °F 19 °F -4 °F (1983)
Degree Days  
Heating Degree Days 26 40  
Month to date heating degree days 1083  
Since 1 July heating degree days 2410  
Cooling Degree Days 0 0  
Month to date cooling degree days 0  
Year to date cooling degree days 675  
Moisture  
Dew Point 33 °F    
Average Humidity 85    
Maximum Humidity 100    
Minimum Humidity 63    
Precipitation  
Precipitation 0.00 in 0.06 in 1.42 in (1971)
Month to date precipitation 1.92  
Year to date precipitation 35.68  
Sea Level Pressure  
Sea Level Pressure 30.43 in    
Wind  
Wind Speed 2 mph (ESE)    
Max Wind Speed 6 mph    
Max Gust Speed -    
Visibility 3 miles    
Events Fog    
T = Trace of Precipitation, MM = Missing Value Source: NWS Daily Summary

Daily Weather History Graph

Daily Weather History Graph

Search for Another Location

Airport or City:

Trip Planner

Search our weather history database for the weather conditions in past years. The results will help you decide how hot, cold, wet, or windy it might be!

Date:

Astronomy

Dec. 30, 2006 Rise Set
Actual Time 8:10 AM EST 5:18 PM EST
Civil Twilight 7:38 AM EST 5:50 PM EST
Nautical Twilight 7:03 AM EST 6:26 PM EST
Astronomical Twilight 6:29 AM EST 7:00 PM EST
Moon 1:47 PM EST (12/30) 4:08 AM EST (12/30)
Length of Visible Light 10h 11m
Length of Day
9h 08m
Waxing Gibbous, 83% of the Moon is Illuminated
Dec 30
Waxing Gibbous
Jan 3
Full
Jan 11
Last Quarter
Jan 18
New
Jan 25
First Quarter

Hourly Weather History & Observations

Time (EST) Temp. Windchill Dew Point Humidity Pressure Visibility Wind Dir Wind Speed Gust Speed Precip Events Conditions
12:53 AM 37.0 °F 34.5 °F 33.1 °F 86% 30.44 in 6.0 mi South 3.5 mph - N/A   Partly Cloudy
1:53 AM 35.1 °F - 32.0 °F 89% 30.41 in 4.0 mi Calm Calm - N/A   Clear
2:53 AM 33.1 °F - 30.9 °F 92% 30.42 in 2.5 mi Calm Calm - N/A   Clear
3:53 AM 33.1 °F 30.0 °F 30.9 °F 92% 30.41 in 1.8 mi SE 3.5 mph - N/A   Clear
4:00 AM 32.0 °F - 30.2 °F 93% 30.38 in 0.8 mi Calm Calm - N/A   Partly Cloudy
4:09 AM 32.0 °F - 30.2 °F 93% 30.38 in 0.8 mi Calm Calm - N/A   Mostly Cloudy
4:14 AM 32.0 °F - 30.2 °F 93% 30.39 in 0.2 mi Calm Calm - N/A Fog Fog
4:53 AM 32.0 °F - 30.0 °F 92% 30.43 in 0.2 mi Calm Calm - N/A Fog Fog
5:53 AM 30.9 °F - 28.9 °F 92% 30.44 in 0.2 mi Calm Calm - N/A Fog Light Freezing Fog
6:53 AM 28.4 °F - 28.4 °F 100% 30.43 in 0.2 mi Calm Calm - N/A Fog Light Freezing Fog
7:11 AM 28.4 °F - 28.4 °F 100% 30.44 in 0.2 mi Calm Calm - N/A Fog Light Freezing Fog
7:43 AM 28.4 °F - 26.6 °F 93% 30.44 in 0.5 mi Calm Calm - N/A Fog Light Freezing Fog
7:51 AM 28.4 °F 24.6 °F 26.6 °F 93% 30.44 in 0.2 mi South 3.5 mph - N/A Fog Light Freezing Fog
7:53 AM 28.0 °F - 26.1 °F 92% 30.47 in 0.2 mi Calm Calm - N/A Fog Light Freezing Fog
8:01 AM 26.6 °F 22.6 °F 26.6 °F 100% 30.44 in 0.5 mi South 3.5 mph - N/A Fog Light Freezing Fog
8:37 AM 28.4 °F - 26.6 °F 93% 30.45 in 1.0 mi Calm Calm - N/A   Clear
8:47 AM 28.4 °F - 26.6 °F 93% 30.46 in 3.0 mi Calm Calm - N/A Fog Shallow Fog
8:53 AM 28.0 °F - 26.1 °F 92% 30.49 in 3.0 mi Calm Calm - N/A Fog Shallow Fog
9:53 AM 32.0 °F - 30.9 °F 96% 30.47 in 4.0 mi Calm Calm - N/A   Partly Cloudy
10:53 AM 37.0 °F 34.5 °F 34.0 °F 89% 30.49 in 5.0 mi South 3.5 mph - N/A   Clear
11:53 AM 45.0 °F - 37.0 °F 74% 30.47 in 6.0 mi Calm Calm - N/A   Haze
12:53 PM 52.0 °F - 39.9 °F 63% 30.44 in 8.0 mi NE 5.8 mph - N/A   Clear
1:53 PM 52.0 °F - 39.9 °F 63% 30.41 in 6.0 mi ESE 3.5 mph - N/A   Haze
2:53 PM 52.0 °F - 39.9 °F 63% 30.41 in 6.0 mi Calm Calm - N/A   Haze
3:53 PM 52.0 °F - 39.9 °F 63% 30.41 in 7.0 mi NE 5.8 mph - N/A   Partly Cloudy
4:53 PM 50.0 °F - 39.9 °F 68% 30.41 in 7.0 mi East 5.8 mph - N/A   Partly Cloudy
5:53 PM 46.9 °F - 39.0 °F 74% 30.40 in 6.0 mi ENE 3.5 mph - N/A   Haze
6:53 PM 44.6 °F 42.2 °F 37.4 °F 76% 30.37 in 6.0 mi East 4.6 mph - N/A   Haze
7:53 PM 44.1 °F 40.8 °F 37.9 °F 79% 30.42 in 5.0 mi East 5.8 mph - N/A   Haze
8:53 PM 43.0 °F 40.3 °F 37.9 °F 82% 30.42 in 5.0 mi ENE 4.6 mph - N/A   Haze
9:53 PM 43.0 °F 39.5 °F 37.0 °F 80% 30.41 in 5.0 mi East 5.8 mph - N/A   Haze
10:53 PM 42.1 °F 38.4 °F 37.0 °F 82% 30.37 in 5.0 mi East 5.8 mph - N/A   Haze
11:53 PM 41.0 °F 37.1 °F 37.0 °F 86% 30.37 in 4.0 mi East 5.8 mph - N/A   Clear